Tracking 30918 objects as of 3-Jul-2025
HD Live streaming from Space Station
objects crossing your sky now

COSMOS 828

Track COSMOS 828 now!
10-day predictions
COSMOS 828 is classified as:


NORAD ID: 8892
Int'l Code: 1976-054D
Perigee: 1,439.2 km
Apogee: 1,495.9 km
Inclination: 74.0 °
Period: 115.1 minutes
Semi major axis: 7838 km
RCS: 0.681 m2 (medium)
Launch date: June 15, 1976
Source: Commonwealth of Independent States (former USSR) (CIS)
Launch site: PLESETSK MISSILE AND SPACE COMPLEX (PKMTR)
Your satellite tracking list
FENGYUN 1C DEB
Track 1 satellite(s)




NASA's NSSDC Master Catalog

Two Line Element Set (TLE):
1 08892U 76054D   25183.63014050 -.00000005  00000-0  72879-4 0  9990
2 08892  74.0024 346.0308 0036183 208.0319 231.4511 12.50981157239789
Source of the keplerian elements: AFSPC